Time,TemperatureF,DewpointF,PressureIn,WindDirection,WindDirectionDegrees,WindSpeedMPH,WindSpeedGustMPH,Humidity,HourlyPrecipIn,Conditions,Clouds,dailyrainin,SolarRadiationWatts/m^2,SoftwareType,DateUTC
2013-04-24 00:06:00,69.8,64.0,29.98,SSW,194,0.0,1.0,82,0.00,,,0.00,0,weatherlink.com 1.10,2013-04-24 05:06:00,
2013-04-24 00:21:00,69.1,64.0,29.98,SSW,194,0.0,0.0,83,0.00,,,0.00,0,weatherlink.com 1.10,2013-04-24 05:21:00,
2013-04-24 00:36:00,69.1,64.0,29.98,SSW,196,0.0,1.0,84,0.00,,,0.00,0,weatherlink.com 1.10,2013-04-24 05:36:00,
2013-04-24 00:51:00,69.3,64.0,29.97,SSW,195,0.0,1.0,84,0.00,,,0.00,0,weatherlink.com 1.10,2013-04-24 05:51:00,
2013-04-24 01:06:00,69.9,65.0,29.98,SSW,194,0.0,1.0,85,0.00,,,0.00,0,weatherlink.com 1.10,2013-04-24 06:06:00,
2013-04-24 01:21:00,69.9,65.0,29.97,SSW,193,0.0,4.0,85,0.00,,,0.00,0,weatherlink.com 1.10,2013-04-24 06:21:00,
2013-04-24 01:37:00,70.1,66.0,29.97,SSW,194,0.0,0.0,86,0.00,,,0.00,0,weatherlink.com 1.10,2013-04-24 06:37:00,
2013-04-24 01:52:00,70.4,66.0,29.97,SSW,192,0.0,2.0,86,0.00,,,0.00,0,weatherlink.com 1.10,2013-04-24 06:52:00,
2013-04-24 02:07:00,70.7,66.0,29.96,WSW,257,2.0,4.0,86,0.00,,,0.00,0,weatherlink.com 1.10,2013-04-24 07:07:00,
2013-04-24 02:22:00,71.0,67.0,29.96,SSW,196,1.0,5.0,86,0.00,,,0.00,0,weatherlink.com 1.10,2013-04-24 07:22:00,
2013-04-24 02:37:00,71.0,67.0,29.96,SSW,208,0.0,5.0,86,0.00,,,0.00,0,weatherlink.com 1.10,2013-04-24 07:37:00,
2013-04-24 02:52:00,71.1,67.0,29.96,South,186,2.0,4.0,86,0.00,,,0.00,0,weatherlink.com 1.10,2013-04-24 07:52:00,
2013-04-24 03:07:00,71.1,67.0,29.96,North,4,0.0,6.0,86,0.00,,,0.00,0,weatherlink.com 1.10,2013-04-24 08:07:00,
2013-04-24 03:22:00,71.1,67.0,29.95,South,182,0.0,4.0,86,0.00,,,0.00,0,weatherlink.com 1.10,2013-04-24 08:22:00,
2013-04-24 03:37:00,71.1,67.0,29.95,SSW,212,0.0,7.0,86,0.00,,,0.00,0,weatherlink.com 1.10,2013-04-24 08:37:00,
2013-04-24 03:52:00,71.0,67.0,29.94,SE,145,0.0,6.0,86,0.00,,,0.00,0,weatherlink.com 1.10,2013-04-24 08:52:00,
2013-04-24 04:08:00,71.0,67.0,29.94,SSE,162,2.0,4.0,87,0.00,,,0.00,0,weatherlink.com 1.10,2013-04-24 09:08:00,
2013-04-24 04:22:00,71.1,67.0,29.94,SSW,192,1.0,7.0,87,0.00,,,0.00,0,weatherlink.com 1.10,2013-04-24 09:22:00,
2013-04-24 04:37:00,71.2,67.0,29.94,SSW,196,0.0,5.0,87,0.00,,,0.00,0,weatherlink.com 1.10,2013-04-24 09:37:00,
2013-04-24 04:52:00,69.1,65.0,29.97,WNW,289,6.0,9.0,85,0.00,,,0.00,0,weatherlink.com 1.10,2013-04-24 09:52:00,
2013-04-24 05:13:00,59.9,54.0,29.97,SSE,162,0.0,7.0,82,0.14,,,0.14,0,weatherlink.com 1.10,2013-04-24 10:13:00,
2013-04-24 05:28:00,58.2,54.0,30.00,NE,55,1.0,6.0,85,0.18,,,0.18,0,weatherlink.com 1.10,2013-04-24 10:28:00,
2013-04-24 05:37:00,56.8,52.0,30.01,NW,312,2.0,7.0,85,0.19,,,0.19,0,weatherlink.com 1.10,2013-04-24 10:37:00,
2013-04-24 05:52:00,55.3,51.0,30.02,North,4,0.0,9.0,86,0.20,,,0.20,0,weatherlink.com 1.10,2013-04-24 10:52:00,
2013-04-24 06:07:00,53.7,50.0,30.03,NE,36,0.0,7.0,86,0.25,,,0.27,0,weatherlink.com 1.10,2013-04-24 11:07:00,
2013-04-24 06:22:00,52.8,49.0,30.08,NW,324,2.0,7.0,87,0.15,,,0.32,0,weatherlink.com 1.10,2013-04-24 11:22:00,
2013-04-24 06:37:00,52.4,49.0,30.08,ENE,68,0.0,5.0,87,0.18,,,0.37,0,weatherlink.com 1.10,2013-04-24 11:37:00,
2013-04-24 06:52:00,51.6,48.0,30.08,North,4,0.0,14.0,88,0.22,,,0.42,0,weatherlink.com 1.10,2013-04-24 11:52:00,
2013-04-24 07:07:00,51.4,48.0,30.09,North,4,0.0,4.0,88,0.16,,,0.43,0,weatherlink.com 1.10,2013-04-24 12:07:00,
2013-04-24 07:22:00,51.2,48.0,30.09,North,359,4.0,4.0,88,0.14,,,0.47,0,weatherlink.com 1.10,2013-04-24 12:22:00,
2013-04-24 07:37:00,51.0,48.0,30.11,NNE,29,0.0,5.0,88,0.10,,,0.47,14,weatherlink.com 1.10,2013-04-24 12:37:00,
2013-04-24 07:53:00,50.8,47.0,30.11,North,4,0.0,5.0,88,0.06,,,0.48,33,weatherlink.com 1.10,2013-04-24 12:53:00,
2013-04-24 08:08:00,50.4,47.0,30.12,East,94,1.0,7.0,89,0.06,,,0.49,7,weatherlink.com 1.10,2013-04-24 13:08:00,
2013-04-24 08:23:00,50.2,47.0,30.13,NE,53,0.0,5.0,89,0.04,,,0.51,11,weatherlink.com 1.10,2013-04-24 13:23:00,
2013-04-24 08:38:00,50.0,47.0,30.13,SSW,195,2.0,8.0,89,0.04,,,0.51,46,weatherlink.com 1.10,2013-04-24 13:38:00,
2013-04-24 08:53:00,49.3,46.0,30.15,NNE,20,0.0,4.0,89,0.07,,,0.55,12,weatherlink.com 1.10,2013-04-24 13:53:00,
2013-04-24 09:08:00,49.3,46.0,30.15,NE,34,1.0,5.0,89,0.10,,,0.59,60,weatherlink.com 1.10,2013-04-24 14:08:00,
2013-04-24 09:23:00,49.4,46.0,30.16,North,4,0.0,4.0,89,0.08,,,0.59,44,weatherlink.com 1.10,2013-04-24 14:23:00,
2013-04-24 09:38:00,49.1,46.0,30.16,NE,55,5.0,5.0,89,0.09,,,0.60,47,weatherlink.com 1.10,2013-04-24 14:38:00,
2013-04-24 09:53:00,49.1,46.0,30.17,NNE,13,1.0,4.0,89,0.05,,,0.60,144,weatherlink.com 1.10,2013-04-24 14:53:00,
2013-04-24 10:23:00,49.8,47.0,30.19,ENE,68,1.0,5.0,89,0.01,,,0.60,95,weatherlink.com 1.10,2013-04-24 15:23:00,
2013-04-24 10:38:00,49.4,46.0,30.20,NE,47,0.0,9.0,89,0.00,,,0.60,95,weatherlink.com 1.10,2013-04-24 15:38:00,
2013-04-24 10:53:00,49.5,46.0,30.20,SE,128,1.0,6.0,89,0.00,,,0.60,116,weatherlink.com 1.10,2013-04-24 15:53:00,
2013-04-24 11:08:00,49.5,46.0,30.20,North,4,0.0,5.0,89,0.00,,,0.60,151,weatherlink.com 1.10,2013-04-24 16:08:00,
2013-04-24 11:23:00,49.9,47.0,30.21,WNW,291,4.0,7.0,89,0.00,,,0.60,132,weatherlink.com 1.10,2013-04-24 16:23:00,
2013-04-24 11:38:00,50.2,47.0,30.21,NE,34,1.0,5.0,90,0.00,,,0.60,197,weatherlink.com 1.10,2013-04-24 16:38:00,
2013-04-24 11:53:00,50.2,47.0,30.21,NE,36,0.0,7.0,89,0.00,,,0.60,206,weatherlink.com 1.10,2013-04-24 16:53:00,
2013-04-24 12:08:00,50.9,48.0,30.20,East,85,1.0,5.0,90,0.00,,,0.60,165,weatherlink.com 1.10,2013-04-24 17:08:00,
2013-04-24 12:23:00,51.4,49.0,30.20,NE,40,0.0,6.0,90,0.00,,,0.60,199,weatherlink.com 1.10,2013-04-24 17:23:00,
2013-04-24 12:38:00,51.4,48.0,30.20,North,359,1.0,5.0,89,0.00,,,0.60,258,weatherlink.com 1.10,2013-04-24 17:38:00,
2013-04-24 12:53:00,52.6,50.0,30.19,NNE,19,0.0,6.0,90,0.00,,,0.60,515,weatherlink.com 1.10,2013-04-24 17:53:00,
2013-04-24 13:08:00,53.4,50.0,30.19,North,359,1.0,8.0,89,0.00,,,0.60,496,weatherlink.com 1.10,2013-04-24 18:08:00,
2013-04-24 13:23:00,53.5,50.0,30.20,North,9,1.0,5.0,88,0.00,,,0.60,415,weatherlink.com 1.10,2013-04-24 18:23:00,
2013-04-24 13:38:00,53.8,50.0,30.20,West,281,0.0,5.0,87,0.00,,,0.60,425,weatherlink.com 1.10,2013-04-24 18:38:00,
2013-04-24 13:53:00,54.7,50.0,30.19,NNE,30,3.0,7.0,85,0.00,,,0.60,406,weatherlink.com 1.10,2013-04-24 18:53:00,
2013-04-24 14:08:00,56.4,51.0,30.19,NE,34,0.0,8.0,83,0.00,,,0.60,308,weatherlink.com 1.10,2013-04-24 19:08:00,
2013-04-24 14:23:00,56.2,50.0,30.18,NNE,30,2.0,8.0,79,0.00,,,0.60,570,weatherlink.com 1.10,2013-04-24 19:23:00,
2013-04-24 14:38:00,57.7,51.0,30.18,NE,35,3.0,5.0,78,0.00,,,0.60,1120,weatherlink.com 1.10,2013-04-24 19:38:00,
2013-04-24 14:53:00,59.3,51.0,30.18,ENE,58,4.0,5.0,74,0.00,,,0.60,1041,weatherlink.com 1.10,2013-04-24 19:53:00,
2013-04-24 15:08:00,59.4,50.0,30.18,NE,34,1.0,7.0,71,0.00,,,0.60,1028,weatherlink.com 1.10,2013-04-24 20:08:00,
2013-04-24 15:23:00,60.3,52.0,30.18,NE,41,3.0,6.0,73,0.00,,,0.60,323,weatherlink.com 1.10,2013-04-24 20:23:00,
2013-04-24 15:38:00,60.0,51.0,30.17,NNE,26,4.0,8.0,71,0.00,,,0.60,932,weatherlink.com 1.10,2013-04-24 20:38:00,
2013-04-24 15:53:00,59.8,51.0,30.16,NNE,13,0.0,8.0,72,0.00,,,0.60,904,weatherlink.com 1.10,2013-04-24 20:53:00,
2013-04-24 16:08:00,60.5,51.0,30.16,NE,44,0.0,6.0,70,0.00,,,0.60,758,weatherlink.com 1.10,2013-04-24 21:08:00,
2013-04-24 16:23:00,59.9,50.0,30.16,NNE,20,5.0,6.0,70,0.00,,,0.60,679,weatherlink.com 1.10,2013-04-24 21:23:00,
2013-04-24 16:38:00,59.4,50.0,30.16,NNE,19,8.0,8.0,71,0.00,,,0.60,628,weatherlink.com 1.10,2013-04-24 21:38:00,
2013-04-24 16:53:00,59.2,50.0,30.15,NE,39,3.0,7.0,72,0.00,,,0.60,223,weatherlink.com 1.10,2013-04-24 21:53:00,
2013-04-24 17:08:00,59.0,50.0,30.15,ESE,106,0.0,5.0,71,0.00,,,0.60,568,weatherlink.com 1.10,2013-04-24 22:08:00,
2013-04-24 17:23:00,59.5,50.0,30.14,NNE,21,2.0,3.0,71,0.00,,,0.60,540,weatherlink.com 1.10,2013-04-24 22:23:00,
2013-04-24 17:39:00,59.2,49.0,30.15,NNE,29,4.0,7.0,70,0.00,,,0.60,102,weatherlink.com 1.10,2013-04-24 22:39:00,
2013-04-24 17:54:00,58.4,49.0,30.15,NNE,30,0.0,7.0,72,0.00,,,0.60,111,weatherlink.com 1.10,2013-04-24 22:54:00,
2013-04-24 18:09:00,58.0,49.0,30.16,North,9,0.0,6.0,73,0.00,,,0.60,74,weatherlink.com 1.10,2013-04-24 23:09:00,
2013-04-24 18:24:00,57.4,49.0,30.16,NNE,17,0.0,2.0,74,0.00,,,0.60,76,weatherlink.com 1.10,2013-04-24 23:24:00,
2013-04-24 18:39:00,57.1,49.0,30.17,NNE,18,0.0,2.0,75,0.00,,,0.60,84,weatherlink.com 1.10,2013-04-24 23:39:00,
2013-04-24 18:54:00,56.9,49.0,30.17,NNE,30,0.0,2.0,75,0.00,,,0.60,35,weatherlink.com 1.10,2013-04-24 23:54:00,
2013-04-24 19:09:00,56.1,49.0,30.18,NNE,30,0.0,1.0,76,0.00,,,0.60,26,weatherlink.com 1.10,2013-04-25 00:09:00,
2013-04-24 19:24:00,55.2,48.0,30.18,NE,36,0.0,0.0,77,0.00,,,0.60,14,weatherlink.com 1.10,2013-04-25 00:24:00,
2013-04-24 19:39:00,54.6,48.0,30.19,NE,36,0.0,0.0,78,0.00,,,0.60,7,weatherlink.com 1.10,2013-04-25 00:39:00,
2013-04-24 19:54:00,53.8,48.0,30.19,NE,36,0.0,0.0,80,0.00,,,0.60,0,weatherlink.com 1.10,2013-04-25 00:54:00,
2013-04-24 20:09:00,53.0,47.0,30.20,NE,36,0.0,0.0,81,0.00,,,0.60,0,weatherlink.com 1.10,2013-04-25 01:09:00,
2013-04-24 20:24:00,52.1,46.0,30.21,NE,36,0.0,0.0,81,0.00,,,0.60,0,weatherlink.com 1.10,2013-04-25 01:24:00,
2013-04-24 20:39:00,51.5,46.0,30.22,NE,36,0.0,0.0,82,0.00,,,0.60,0,weatherlink.com 1.10,2013-04-25 01:39:00,
2013-04-24 20:54:00,50.9,46.0,30.23,NE,36,0.0,0.0,83,0.00,,,0.60,0,weatherlink.com 1.10,2013-04-25 01:54:00,
2013-04-24 21:09:00,50.4,46.0,30.23,NE,36,0.0,0.0,84,0.00,,,0.60,0,weatherlink.com 1.10,2013-04-25 02:09:00,
2013-04-24 21:24:00,49.9,45.0,30.24,NE,36,0.0,0.0,84,0.00,,,0.60,0,weatherlink.com 1.10,2013-04-25 02:24:00,
2013-04-24 21:39:00,49.4,45.0,30.24,NE,36,0.0,2.0,85,0.00,,,0.60,0,weatherlink.com 1.10,2013-04-25 02:39:00,
2013-04-24 21:54:00,48.9,45.0,30.24,NE,36,0.0,3.0,85,0.00,,,0.60,0,weatherlink.com 1.10,2013-04-25 02:54:00,
2013-04-24 22:24:00,48.6,45.0,30.25,NE,36,0.0,0.0,86,0.00,,,0.60,0,weatherlink.com 1.10,2013-04-25 03:24:00,
2013-04-24 22:39:00,48.5,45.0,30.25,NE,36,0.0,0.0,86,0.00,,,0.60,0,weatherlink.com 1.10,2013-04-25 03:39:00,
2013-04-24 22:54:00,48.5,45.0,30.26,NE,36,0.0,0.0,86,0.00,,,0.60,0,weatherlink.com 1.10,2013-04-25 03:54:00,
2013-04-24 23:09:00,48.1,44.0,30.26,NE,36,0.0,0.0,86,0.00,,,0.60,0,weatherlink.com 1.10,2013-04-25 04:09:00,
2013-04-24 23:24:00,47.8,44.0,30.26,NE,36,0.0,0.0,86,0.00,,,0.60,0,weatherlink.com 1.10,2013-04-25 04:24:00,
2013-04-24 23:39:00,47.7,44.0,30.26,NE,36,0.0,0.0,87,0.00,,,0.60,0,weatherlink.com 1.10,2013-04-25 04:39:00,
2013-04-24 23:54:00,47.6,44.0,30.25,NE,36,0.0,0.0,87,0.00,,,0.60,0,weatherlink.com 1.10,2013-04-25 04:54:00,